OK1FET-14 Weather Reports


time (UTC)temp
F
wind
direction
speed
knots
gust
knots
rain 1hr
in
rain 24hr
in
rain mn
in
humidity
%
barometer
mb
20260507075355 55 203 16.5 18.2 0.00 0.00 0.00 89 1011.7
20260507074915 55 201 18.2 26.9 0.00 0.00 0.00 90 1011.7
20260507074435 55 203 19.1 21.7 0.00 0.00 0.00 91 1011.7
20260507073955 55 204 18.2 20.0 0.00 0.00 0.00 92 1011.6
20260507073515 54 215 14.8 20.9 0.00 0.00 0.00 95 1011.6
20260507073034 53 218 15.6 20.0 0.00 0.00 0.00 96 1011.5
20260507072554 53 207 14.8 18.2 0.00 0.00 0.00 97 1011.5
20260507072114 53 187 14.8 19.1 0.00 0.00 0.00 98 1011.5
20260507071634 53 186 13.0 16.5 0.00 0.00 0.00 98 1011.4
20260507071154 53 196 13.0 15.6 0.00 0.00 0.00 100 1011.4
20260507070714 52 193 13.9 17.4 0.00 0.00 0.00 100 1011.3
20260507070234 53 213 12.2 14.8 0.00 0.00 0.00 100 1011.4
20260507065753 53 193 13.9 20.0 0.00 0.00 0.00 100 1011.2
20260507065313 53 190 13.0 16.5 0.00 0.00 0.00 100 1011.3
20260507064833 53 201 13.0 15.6 0.00 0.00 0.00 100 1011.2
20260507064353 52 219 15.6 20.0 0.00 0.00 0.00 100 1011.2
20260507063913 52 210 13.9 16.5 0.00 0.00 0.00 100 1011.2
20260507063433 52 219 14.8 17.4 0.00 0.00 0.00 100 1011.1
20260507062953 53 216 16.5 19.1 0.00 0.00 0.00 100 1011.1
20260507062513 53 210 13.9 15.6 0.00 0.00 0.00 100 1011.2
20260507062032 52 219 15.6 18.2 0.00 0.00 0.00 100 1011.1
20260507061552 52 210 12.2 14.8 0.00 0.00 0.00 100 1011.1
20260507061112 52 199 13.9 16.5 0.00 0.00 0.00 100 1010.9
20260507060632 52 186 13.9 17.4 0.00 0.00 0.00 100 1010.9
20260507060152 52 198 12.2 13.9 0.00 0.00 0.00 100 1011.0
20260507055712 52 199 16.5 20.0 0.00 0.00 0.00 100 1010.8
20260507055232 52 184 13.9 15.6 0.00 0.00 0.00 100 1010.9
20260507054752 53 207 13.0 14.8 0.00 0.00 0.00 100 1010.7
20260507054311 53 203 10.4 13.9 0.00 0.00 0.00 100 1010.6
20260507053831 52 204 12.2 13.9 0.00 0.00 0.00 100 1010.6
20260507053351 52 192 12.2 13.9 0.00 0.00 0.00 100 1010.5
20260507052911 52 193 13.9 17.4 0.00 0.00 0.00 100 1010.6
20260507052431 51 190 14.8 16.5 0.00 0.00 0.00 100 1010.4
20260507051951 51 196 13.9 15.6 0.00 0.00 0.00 100 1010.3
20260507051511 52 206 13.9 17.4 0.00 0.00 0.00 100 1010.3
20260507051031 51 190 13.9 18.2 0.00 0.00 0.00 100 1010.3
20260507050551 51 192 13.0 15.6 0.00 0.00 0.00 100 1010.2
20260507050111 51 198 13.0 17.4 0.00 0.00 0.00 100 1010.3
20260507045631 50 192 12.2 15.6 0.00 0.00 0.00 100 1010.2
20260507045150 50 183 10.4 13.0 0.00 0.00 0.00 100 1010.2
20260507044710 49 198 10.4 12.2 0.00 0.00 0.00 100 1010.2
20260507044230 49 206 11.3 12.2 0.00 0.00 0.00 100 1010.1
20260507043751 49 204 12.2 14.8 0.00 0.00 0.00 100 1010.0
20260507043310 49 206 10.4 13.9 0.00 0.00 0.00 100 1010.0
20260507042830 49 189 10.4 11.3 0.00 0.00 0.00 100 1009.9
20260507042350 49 195 9.6 11.3 0.00 0.00 0.00 100 1009.9
20260507041910 49 198 9.6 10.4 0.00 0.00 0.00 100 1009.9
20260507041622 49 198 8.7 10.4 0.00 0.00 0.00 100 1009.9
20260507041430 49 198 8.7 10.4 0.00 0.00 0.00 100 1009.9
20260507040950 49 180 8.7 8.7 0.00 0.00 0.00 100 1009.9
20260507040510 49 186 8.7 10.4 0.00 0.00 0.00 100 1009.9
20260507040030 49 180 7.8 8.7 0.00 0.00 0.00 100 1009.9
20260507035550 49 180 7.8 8.7 0.00 0.00 0.00 100 1009.9
20260507035110 49 183 7.8 8.7 0.00 0.00 0.00 100 1009.8
20260507034630 49 180 8.7 10.4 0.00 0.00 0.00 100 1009.9
20260507034150 49 183 8.7 10.4 0.00 0.00 0.00 100 1009.9
20260507033710 49 180 7.8 7.8 0.00 0.00 0.00 100 1009.8
20260507033230 49 186 7.8 8.7 0.00 0.00 0.00 100 1009.8
20260507032822 49 186 7.8 10.4 0.00 0.00 0.00 100 1009.8
20260507032750 49 186 7.8 10.4 0.00 0.00 0.00 100 1009.8
20260507032310 49 181 8.7 11.3 0.00 0.00 0.00 100 1009.9
20260507031831 49 181 7.8 9.6 0.00 0.00 0.00 100 1009.8
20260507031350 49 186 7.8 8.7 0.00 0.00 0.00 100 1009.8
20260507030911 49 189 7.8 8.7 0.00 0.00 0.00 100 1009.8
20260507030431 49 183 7.8 10.4 0.00 0.00 0.00 100 1009.8
20260507025951 49 186 8.7 10.4 0.00 0.00 0.00 100 1009.7
20260507025511 49 180 9.6 11.3 0.00 0.00 0.00 100 1009.8
20260507025031 49 183 9.6 10.4 0.00 0.00 0.00 100 1009.7
20260507024551 48 189 9.6 11.3 0.00 0.00 0.00 100 1009.7
20260507024228 48 183 8.7 9.6 0.00 0.00 0.00 100 1009.7
20260507024111 48 183 8.7 9.6 0.00 0.00 0.00 100 1009.7
20260507023631 48 180 7.8 8.7 0.00 0.00 0.00 100 1009.6
20260507023151 48 183 7.8 8.7 0.00 0.00 0.00 100 1009.6
20260507022711 48 180 7.8 10.4 0.00 0.00 0.00 100 1009.5
20260507022231 48 183 7.0 8.7 0.00 0.00 0.00 100 1009.5
20260507021751 48 180 7.8 8.7 0.00 0.00 0.00 100 1009.5
20260507021311 49 183 7.8 9.6 0.00 0.00 0.00 100 1009.5
20260507020831 49 183 7.8 8.7 0.00 0.00 0.00 100 1009.5
20260507020351 49 180 7.8 8.7 0.00 0.00 0.00 100 1009.4
20260507015911 49 180 7.8 9.6 0.00 0.00 0.00 100 1009.4
20260507015431 49 180 7.0 9.6 0.00 0.00 0.00 100 1009.3
20260507014951 49 183 7.8 9.6 0.00 0.00 0.00 100 1009.3
20260507014511 49 195 7.8 8.7 0.00 0.00 0.00 100 1009.3
20260507014031 49 192 7.8 9.6 0.00 0.00 0.00 100 1009.2
20260507013551 49 195 6.1 7.0 0.00 0.00 0.00 100 1009.1
20260507013111 49 193 6.1 7.0 0.00 0.00 0.00 100 1009.0
20260507012631 49 193 7.8 9.6 0.00 0.00 0.00 100 1009.0
20260507012151 49 206 7.8 8.7 0.00 0.00 0.00 100 1008.9
20260507011711 49 203 7.8 9.6 0.00 0.00 0.00 100 1009.0
20260507011231 49 198 7.8 8.7 0.00 0.00 0.00 100 1009.0
20260507010751 50 183 7.8 8.7 0.00 0.00 0.00 100 1009.0
20260507010311 50 186 7.8 8.7 0.00 0.00 0.00 100 1009.0
20260507005831 50 197 7.0 7.8 0.00 0.00 0.00 100 1009.1
20260507005351 50 193 7.8 8.7 0.00 0.00 0.00 100 1009.0
20260507004911 50 205 8.7 9.6 0.00 0.00 0.00 100 1009.1
20260507004431 50 201 9.6 10.4 0.00 0.00 0.00 100 1009.1
20260507003950 50 213 8.7 10.4 0.00 0.00 0.00 100 1009.1
20260507003510 50 219 7.0 7.0 0.00 0.00 0.00 100 1008.9
20260507003030 50 219 6.1 7.0 0.00 0.00 0.00 100 1008.8
20260507002550 50 222 5.2 6.1 0.00 0.00 0.00 100 1008.8
20260507002110 50 224 6.1 7.0 0.00 0.00 0.00 100 1008.8
20260507001630 50 224 6.1 7.0 0.00 0.00 0.00 100 1008.7
20260507001150 50 225 5.2 6.1 0.00 0.00 0.00 100 1008.6
20260507000710 50 225 4.3 5.2 0.00 0.00 0.00 100 1008.6
20260507000230 50 210 3.5 4.3 0.00 0.00 0.00 100 1008.5
20260506235750 50 222 2.6 2.6 0.00 0.00 0.00 100 1008.4
20260506235310 50 231 2.6 2.6 0.00 0.00 0.00 100 1008.4
20260506234830 50 254 2.6 3.5 0.00 0.00 0.00 100 1008.3
20260506234350 51 225 1.7 2.6 0.00 0.00 0.00 100 1008.4
20260506233910 51 210 2.6 4.3 0.00 0.00 0.00 100 1008.5
20260506233430 51 206 2.6 3.5 0.00 0.00 0.00 100 1008.5
20260506232950 51 225 2.6 3.5 0.00 0.00 0.00 100 1008.3
20260506232510 51 225 3.5 4.3 0.00 0.00 0.00 100 1008.4
20260506232030 51 225 3.5 4.3 0.00 0.00 0.00 100 1008.4
20260506231550 51 225 4.3 5.2 0.00 0.00 0.00 100 1008.4
20260506231109 51 225 4.3 5.2 0.00 0.00 0.00 100 1008.5
20260506230629 51 222 5.2 6.1 0.00 0.00 0.00 100 1008.4
20260506230149 51 225 5.2 6.1 0.00 0.00 0.00 100 1008.3
20260506225709 51 222 4.3 5.2 0.00 0.00 0.00 100 1008.3
20260506225229 51 222 5.2 6.1 0.00 0.00 0.00 100 1008.3
20260506224749 51 216 6.1 7.8 0.00 0.00 0.00 100 1008.4
20260506224309 51 222 4.3 6.1 0.00 0.00 0.00 100 1008.4
20260506223829 51 222 4.3 5.2 0.00 0.00 0.00 100 1008.4
20260506223349 51 226 5.2 8.7 0.00 0.00 0.00 100 1008.4
20260506222909 51 251 6.1 7.8 0.00 0.00 0.00 100 1008.3
20260506222429 51 231 7.8 11.3 0.00 0.00 0.00 100 1008.3
20260506221949 52 235 3.5 7.0 0.00 0.00 0.00 100 1008.1
20260506221509 52 235 2.6 4.3 0.00 0.00 0.00 100 1008.0
20260506221222 51 254 4.3 6.1 0.00 0.00 0.00 100 1008.1
20260506221028 51 254 4.3 6.1 0.00 0.00 0.00 100 1008.1
20260506220548 51 267 5.2 6.1 0.00 0.00 0.00 100 1008.1
20260506220108 51 264 5.2 6.1 0.00 0.00 0.00 100 1008.1
20260506215628 51 256 3.5 5.2 0.00 0.00 0.00 100 1008.2
20260506215148 51 249 3.5 5.2 0.00 0.00 0.00 100 1008.3
20260506214708 51 249 3.5 5.2 0.00 0.00 0.00 100 1008.4
20260506214228 51 258 5.2 7.0 0.00 0.00 0.00 100 1008.5
20260506213748 51 237 6.1 7.0 0.00 0.00 0.00 100 1008.5
20260506213308 51 224 6.1 7.0 0.00 0.00 0.00 100 1008.5
20260506212828 52 227 6.1 7.8 0.00 0.00 0.00 100 1008.5
20260506212348 52 225 7.0 8.7 0.00 0.00 0.00 100 1008.4
20260506211908 52 210 7.0 8.7 0.00 0.00 0.00 100 1008.3
20260506211427 52 228 9.6 13.0 0.00 0.00 0.00 100 1008.4
20260506210947 53 228 8.7 10.4 0.00 0.00 0.00 100 1008.3
20260506210507 53 225 8.7 11.3 0.00 0.00 0.00 100 1008.1
20260506210027 53 216 10.4 13.9 0.00 0.00 0.00 100 1008.0
20260506205547 53 213 11.3 14.8 0.00 0.00 0.00 100 1008.0
20260506205107 54 187 7.0 8.7 0.00 0.00 0.00 97 1007.9
20260506204627 54 180 6.1 8.7 0.00 0.00 0.00 96 1007.7
20260506204146 54 180 3.5 3.5 0.00 0.00 0.00 96 1007.6
20260506203706 54 142 4.3 6.1 0.00 0.00 0.00 94 1007.6
20260506203307 54 141 5.2 7.0 0.00 0.00 0.00 93 1007.6
20260506203226 54 141 5.2 7.0 0.00 0.00 0.00 93 1007.6
20260506202746 54 141 7.0 9.6 0.00 0.00 0.00 91 1007.5
20260506202306 55 120 6.1 8.7 0.00 0.00 0.00 88 1007.5
20260506201826 54 132 4.3 5.2 0.00 0.00 0.00 90 1007.5
20260506201345 55 135 3.5 5.2 0.00 0.00 0.00 89 1007.5
20260506200905 55 135 3.5 4.3 0.00 0.00 0.00 87 1007.4
20260506200532 55 101 2.6 3.5 0.00 0.00 0.00 85 1007.3
20260506200425 55 101 2.6 3.5 0.00 0.00 0.00 85 1007.3
20260506195945 56 61 3.5 4.3 0.00 0.00 0.00 85 1007.1
20260506195505 55 23 3.5 6.1 0.00 0.00 0.00 86 1007.0
20260506195024 55 357 3.5 4.3 0.00 0.00 0.00 86 1007.0
20260506194544 55 0 3.5 4.3 0.00 0.00 0.00 86 1006.9
20260506194503 55 332 1.7 2.6 0.00 0.00 0.00 86 1006.9
20260506194104 55 332 1.7 2.6 0.00 0.00 0.00 86 1006.9
20260506193624 55 225 2.6 3.5 0.00 0.00 0.00 86 1007.1
20260506193144 56 51 4.3 6.1 0.00 0.00 0.00 82 1007.3
20260506192704 56 45 6.1 7.0 0.00 0.00 0.00 83 1007.1
20260506192223 56 36 6.1 7.0 0.00 0.00 0.00 84 1007.0
20260506191743 55 33 4.3 4.3 0.00 0.00 0.00 85 1006.9
20260506191303 55 45 5.2 7.0 0.00 0.00 0.00 84 1006.9
20260506190823 55 46 5.2 6.1 0.00 0.00 0.00 85 1006.8
20260506190343 55 66 4.3 5.2 0.00 0.00 0.00 87 1006.9
20260506185902 55 71 4.3 7.0 0.00 0.00 0.00 86 1006.8
20260506185422 55 45 7.0 8.7 0.00 0.00 0.00 85 1006.5
20260506184947 55 45 6.1 8.7 0.00 0.00 0.00 84 1006.3
20260506184942 55 45 6.1 8.7 0.00 0.00 0.00 84 1006.3
20260506184506 55 41 4.3 5.2 0.00 0.00 0.00 84 1006.3
20260506184502 55 41 4.3 5.2 0.00 0.00 0.00 84 1006.3
20260506184026 54 356 2.6 4.3 0.00 0.00 0.00 84 1006.3
20260506184022 54 356 2.6 4.3 0.00 0.00 0.00 84 1006.3
20260506183546 55 359 5.2 6.1 0.00 0.00 0.00 83 1006.1
20260506183541 55 359 5.2 6.1 0.00 0.00 0.00 83 1006.1
20260506183101 55 0 5.2 6.1 0.00 0.00 0.00 83 1006.0
20260506182621 55 359 6.1 7.8 0.00 0.00 0.00 82 1006.0
20260506182145 55 342 5.2 7.0 0.00 0.00 0.00 81 1006.0
20260506182141 55 342 5.2 7.0 0.00 0.00 0.00 81 1006.0
20260506181704 55 350 6.1 8.7 0.00 0.00 0.00 80 1006.0
20260506181701 55 350 6.1 8.7 0.00 0.00 0.00 80 1006.0
20260506181220 56 341 6.1 11.3 0.00 0.00 0.00 79 1005.9
20260506180745 56 327 7.8 13.0 0.00 0.00 0.00 78 1006.1
20260506180740 56 327 7.8 13.0 0.00 0.00 0.00 78 1006.1
20260506180304 56 309 7.8 13.0 0.00 0.00 0.00 78 1006.2
20260506180300 56 309 7.8 13.0 0.00 0.00 0.00 78 1006.2
20260506175820 56 310 7.8 11.3 0.00 0.00 0.00 78 1006.2
20260506175340 57 287 7.0 10.4 0.00 0.00 0.00 78 1006.3
20260506174904 58 312 5.2 7.0 0.00 0.00 0.00 74 1006.4
20260506174859 58 312 5.2 7.0 0.00 0.00 0.00 74 1006.4
20260506174423 58 318 2.6 3.5 0.00 0.00 0.00 73 1006.3
20260506174419 58 318 2.6 3.5 0.00 0.00 0.00 73 1006.3
20260506173939 58 315 2.6 3.5 0.00 0.00 0.00 73 1006.3
20260506173458 58 315 2.6 4.3 0.00 0.00 0.00 72 1006.1
20260506173023 59 315 3.5 4.3 0.00 0.00 0.00 72 1006.1
20260506173018 59 315 3.5 4.3 0.00 0.00 0.00 72 1006.1
20260506172542 59 315 2.6 3.5 0.00 0.00 0.00 72 1006.0
20260506172538 59 315 2.6 3.5 0.00 0.00 0.00 72 1006.0
20260506172101 59 331 3.5 4.3 0.00 0.00 0.00 71 1005.9
20260506172057 59 331 3.5 4.3 0.00 0.00 0.00 71 1005.9
20260506171621 59 342 3.5 4.3 0.00 0.00 0.00 70 1005.8
20260506171617 59 342 3.5 4.3 0.00 0.00 0.00 70 1005.8
20260506171136 59 336 4.3 6.1 0.00 0.00 0.00 69 1005.6
20260506170656 60 341 6.1 8.7 0.00 0.00 0.00 68 1005.4
20260506170220 60 328 6.1 8.7 0.00 0.00 0.00 67 1005.4
20260506170216 60 328 6.1 8.7 0.00 0.00 0.00 67 1005.4
20260506165740 60 0 5.2 7.0 0.00 0.00 0.00 66 1005.5
20260506165735 60 0 5.2 7.0 0.00 0.00 0.00 66 1005.5
20260506165255 60 0 4.3 6.1 0.00 0.00 0.00 65 1005.5
20260506164818 60 16 3.5 4.3 0.00 0.00 0.00 66 1005.7
20260506164815 60 16 3.5 4.3 0.00 0.00 0.00 66 1005.7
20260506164338 61 45 3.5 4.3 0.00 0.00 0.00 65 1005.8
20260506164334 61 45 3.5 4.3 0.00 0.00 0.00 65 1005.8
20260506163858 61 45 3.5 4.3 0.00 0.00 0.00 66 1005.8
20260506163854 61 45 3.5 4.3 0.00 0.00 0.00 66 1005.8
20260506163418 61 57 3.5 4.3 0.00 0.00 0.00 65 1005.9
20260506163413 61 57 3.5 4.3 0.00 0.00 0.00 65 1005.9
20260506162933 61 71 3.5 4.3 0.00 0.00 0.00 62 1005.9
20260506162457 62 81 2.6 4.3 0.00 0.00 0.00 62 1005.9
20260506162452 62 81 2.6 4.3 0.00 0.00 0.00 62 1005.9
20260506162012 62 83 4.3 6.1 0.00 0.00 0.00 57 1006.0
20260506161531 62 54 5.2 8.7 0.00 0.00 0.00 59 1005.9
20260506161051 63 45 4.3 6.1 0.00 0.00 0.00 65 1006.0
20260506160610 63 46 5.2 6.1 0.00 0.00 0.00 62 1006.0
20260506160133 63 75 4.3 7.0 0.00 0.00 0.00 59 1006.0
20260506160129 63 75 4.3 7.0 0.00 0.00 0.00 59 1006.0
20260506155653 63 72 5.2 7.0 0.00 0.00 0.00 59 1006.1
20260506155649 63 72 5.2 7.0 0.00 0.00 0.00 59 1006.1
20260506155212 64 87 4.3 6.1 0.00 0.00 0.00 60 1006.2
20260506155208 64 87 4.3 6.1 0.00 0.00 0.00 60 1006.2
20260506154732 64 77 3.5 7.0 0.00 0.00 0.00 59 1006.2
20260506154728 64 77 3.5 7.0 0.00 0.00 0.00 59 1006.2
20260506154251 66 83 2.6 5.2 0.00 0.00 0.00 59 1006.2
20260506154247 66 83 2.6 5.2 0.00 0.00 0.00 59 1006.2
20260506153806 66 97 4.3 7.8 0.00 0.00 0.00 58 1006.4
20260506153330 65 123 7.8 13.0 0.00 0.00 0.00 58 1006.4
20260506153326 65 123 7.8 13.0 0.00 0.00 0.00 58 1006.4
20260506152845 65 129 9.6 13.9 0.00 0.00 0.00 58 1006.4
20260506152409 66 132 3.5 7.0 0.00 0.00 0.00 56 1006.4
20260506152404 66 132 3.5 7.0 0.00 0.00 0.00 56 1006.4
20260506151928 66 118 5.2 7.8 0.00 0.00 0.00 55 1006.5
20260506151924 66 118 5.2 7.8 0.00 0.00 0.00 55 1006.5
20260506151447 66 91 6.1 10.4 0.00 0.00 0.00 56 1006.5
20260506151443 66 91 6.1 10.4 0.00 0.00 0.00 56 1006.5
20260506151006 66 123 5.2 9.6 0.00 0.00 0.00 56 1006.6
20260506151002 66 123 5.2 9.6 0.00 0.00 0.00 56 1006.6
20260506150526 67 105 4.3 6.1 0.00 0.00 0.00 58 1006.6
20260506150521 67 105 4.3 6.1 0.00 0.00 0.00 58 1006.6
20260506150044 68 81 3.5 5.2 0.00 0.00 0.00 56 1006.5
20260506150040 68 81 3.5 5.2 0.00 0.00 0.00 56 1006.5
20260506145605 69 118 4.3 7.8 0.00 0.00 0.00 55 1006.7
20260506145603 69 118 4.3 7.8 0.00 0.00 0.00 55 1006.7
20260506145559 69 118 4.3 7.8 0.00 0.00 0.00 55 1006.7
20260506145153 71 49 3.5 7.0 0.00 0.00 0.00 59 1006.6
20260506145122 71 49 3.5 7.0 0.00 0.00 0.00 59 1006.6
20260506145118 71 49 3.5 7.0 0.00 0.00 0.00 59 1006.6
20260506144641 70 16 82.6 33.0 0.00 0.00 0.00 61
20260506144637 70 16 4.3 7.0 0.00 0.00 0.00 61 1006.7
20260506144156 71 47 0.9 3.5 0.00 0.00 0.00 63 1006.7
20260506143715 70 113 1.7 4.3 0.00 0.00 0.00 57 1006.8
20260506143234 69 153 4.3 7.0 0.00 0.00 0.00 55 1006.8
20260506142757 72 145 4.3 6.1 0.00 0.00 0.00 55 1006.9
20260506142753 72 145 4.3 6.1 0.00 0.00 0.00 55 1006.9
20260506142316 76 86 1.7 2.6 0.00 0.00 0.00 61 1006.9
20260506142311 76 86 1.7 2.6 0.00 0.00 0.00 61 1006.9
20260506141834 80 115 1.7 3.5 0.00 0.00 0.00 50 1006.8
20260506141830 80 115 1.7 3.5 0.00 0.00 0.00 50 1006.8
20260506141353 75 161 1.7 4.3 0.00 0.00 0.00 50 1006.8
20260506141348 75 161 1.7 4.3 0.00 0.00 0.00 50 1006.8
20260506140912 72 187 1.7 3.5 0.00 0.00 0.00 53 1006.8
20260506140907 72 187 1.7 3.5 0.00 0.00 0.00 53 1006.8
20260506140430 70 225 4.3 7.0 0.00 0.00 0.00 51 1006.9
20260506140426 70 225 4.3 7.0 0.00 0.00 0.00 51 1006.9
20260506135945 69 216 3.5 7.0 0.00 0.00 0.00 57 1006.9
20260506135504 69 210 2.6 4.3 0.00 0.00 0.00 55 1007.0
20260506135028 69 219 1.7 2.6 0.00 0.00 0.00 60 1007.1
20260506135023 69 219 1.7 2.6 0.00 0.00 0.00 60 1007.1
20260506134546 69 217 2.6 6.1 0.00 0.00 0.00 54 1007.1
20260506134542 69 217 2.6 6.1 0.00 0.00 0.00 54 1007.1
20260506134104 69 212 4.3 6.1 0.00 0.00 0.00 56 1007.0
20260506134101 69 212 4.3 6.1 0.00 0.00 0.00 56 1007.0
20260506133623 70 241 4.3 6.1 0.00 0.00 0.00 57 1007.1
20260506133619 70 241 4.3 6.1 0.00 0.00 0.00 57 1007.1
20260506133138 68 193 5.2 7.0 0.00 0.00 0.00 54 1007.1
20260506132701 72 45 1.7 6.1 0.00 0.00 0.00 47 1007.1
20260506132656 72 45 1.7 6.1 0.00 0.00 0.00 47 1007.1
20260506132215 77 262 2.6 4.3 0.00 0.00 0.00 62 1007.1
20260506131740 72 199 5.2 8.7 0.00 0.00 0.00 47 1007.2
20260506131737 72 199 5.2 8.7 0.00 0.00 0.00 47 1007.2
20260506131733 72 199 5.2 8.7 0.00 0.00 0.00 47 1007.2
20260506131257 73 193 5.2 11.3 0.00 0.00 0.00 45 1007.2
20260506131255 73 193 5.2 11.3 0.00 0.00 0.00 45 1007.2
20260506131252 73 193 5.2 11.3 0.00 0.00 0.00 45 1007.2
20260506130810 79 174 2.6 5.2 0.00 0.00 0.00 42 1007.2
20260506130332 78 192 0.9 1.7 0.00 0.00 0.00 46 1007.3
20260506130329 78 192 0.9 1.7 0.00 0.00 0.00 46 1007.3
20260506125847 75 210 1.7 2.6 0.00 0.00 0.00 53 1007.4
20260506125406 73 167 0.9 3.5 0.00 0.00 0.00 59 1007.5
20260506124925 69 222 6.1 11.3 0.00 0.00 0.00 50 1007.5
20260506124444 67 238 7.0 11.3 0.00 0.00 0.00 54 1007.6
20260506124003 71 232 5.2 7.8 0.00 0.00 0.00 56 1007.6
20260506123522 69 231 5.2 7.8 0.00 0.00 0.00 55 1007.7
20260506123041 67 213 7.8 10.4 0.00 0.00 0.00 55 1007.8
20260506122605 68 224 5.2 7.8 0.00 0.00 0.00 55 1007.9
20260506122600 68 224 5.2 7.8 0.00 0.00 0.00 55 1007.9
20260506122119 67 213 7.0 7.8 0.00 0.00 0.00 53 1008.0
20260506121638 67 204 7.0 10.4 0.00 0.00 0.00 55 1007.9
20260506121158 67 189 8.7 11.3 0.00 0.00 0.00 54 1007.9
20260506120721 67 184 6.1 10.4 0.00 0.00 0.00 55 1007.8
20260506120717 67 184 6.1 10.4 0.00 0.00 0.00 55 1007.8
20260506120236 66 207 6.1 8.7 0.00 0.00 0.00 55 1007.8
20260506115800 67 226 7.0 9.6 0.00 0.00 0.00 54 1007.7
20260506115759 67 226 7.0 9.6 0.00 0.00 0.00 54 1007.7
20260506115755 67 226 7.0 9.6 0.00 0.00 0.00 54 1007.7
20260506115314 65 203 7.8 10.4 0.00 0.00 0.00 58 1007.9
20260506114838 65 183 7.8 13.0 0.00 0.00 0.00 59 1007.8
20260506114834 65 183 7.8 13.0 0.00 0.00 0.00 59 1007.8
20260506114357 63 196 10.4 15.6 0.00 0.00 0.00 62 1008.0
20260506114353 63 196 10.4 15.6 0.00 0.00 0.00 62 1008.0
20260506113917 64 198 7.0 8.7 0.00 0.00 0.00 61 1007.9
20260506113912 64 198 7.0 8.7 0.00 0.00 0.00 61 1007.9
20260506113431 66 225 7.0 9.6 0.00 0.00 0.00 58 1007.9
20260506112951 65 235 4.3 9.6 0.00 0.00 0.00 65 1007.9
20260506112510 65 231 3.5 5.2 0.00 0.00 0.00 71 1007.9
20260506112033 65 229 7.0 10.4 0.00 0.00 0.00 66 1007.9
20260506112029 65 229 7.0 10.4 0.00 0.00 0.00 66 1007.9
20260506111549 63 190 9.6 12.2 0.00 0.00 0.00 63 1008.0
20260506111108 65 211 7.0 8.7 0.00 0.00 0.00 61 1008.1
20260506110628 63 197 7.0 8.7 0.00 0.00 0.00 64 1008.1
20260506110152 62 199 7.8 10.4 0.00 0.00 0.00 64 1008.0
20260506110147 62 199 7.8 10.4 0.00 0.00 0.00 64 1008.0
20260506105711 61 186 7.8 11.3 0.00 0.00 0.00 66 1008.2
20260506105706 61 186 7.8 11.3 0.00 0.00 0.00 66 1008.2
20260506105230 61 209 10.4 15.6 0.00 0.00 0.00 67 1008.2
20260506105226 61 209 10.4 15.6 0.00 0.00 0.00 67 1008.2
20260506104745 62 193 9.6 13.0 0.00 0.00 0.00 66 1008.1
20260506104309 62 195 8.7 11.3 0.00 0.00 0.00 67 1008.1
20260506104305 62 195 8.7 11.3 0.00 0.00 0.00 67 1008.1
20260506103824 62 189 10.4 14.8 0.00 0.00 0.00 65 1008.1
20260506103344 63 180 10.4 13.0 0.00 0.00 0.00 64 1008.2
20260506102908 61 181 10.4 12.2 0.00 0.00 0.00 67 1008.5
20260506102903 61 181 10.4 12.2 0.00 0.00 0.00 67 1008.5
20260506102427 61 209 9.6 11.3 0.00 0.00 0.00 66 1008.3
20260506102423 61 209 9.6 11.3 0.00 0.00 0.00 66 1008.3
20260506101943 60 196 10.4 12.2 0.00 0.00 0.00 68 1008.4
20260506101502 60 202 10.4 12.2 0.00 0.00 0.00 70 1008.4
20260506101022 59 190 11.3 14.8 0.00 0.00 0.00 72 1008.4
20260506100541 59 187 11.3 15.6 0.00 0.00 0.00 71 1008.3
20260506100101 59 180 12.2 15.6 0.00 0.00 0.00 71 1008.3
20260506095620 60 206 7.8 11.3 0.00 0.00 0.00 72 1008.2
20260506095140 60 212 9.6 13.0 0.00 0.00 0.00 70 1008.2
20260506094704 60 206 12.2 15.6 0.00 0.00 0.00 74 1008.3
20260506094700 60 206 12.2 15.6 0.00 0.00 0.00 74 1008.3
20260506094219 59 213 8.7 10.4 0.00 0.00 0.00 75 1008.3
20260506093739 59 219 8.7 11.3 0.00 0.00 0.00 77 1008.2
20260506093258 58 215 10.4 13.0 0.00 0.00 0.00 81 1008.2
20260506092822 57 193 11.3 13.9 0.00 0.00 0.00 87 1008.2
20260506092818 57 193 11.3 13.9 0.00 0.00 0.00 87 1008.2
20260506092338 56 210 11.3 14.8 0.00 0.00 0.00 92 1008.2
20260506091902 56 193 11.3 14.8 0.00 0.00 0.00 92 1008.2
20260506091857 56 193 11.3 14.8 0.00 0.00 0.00 92 1008.2
20260506091417 57 192 11.3 13.9 0.00 0.00 0.00 91 1008.0
20260506090937 55 210 16.5 18.2 0.00 0.00 0.00 91 1008.2
20260506090456 56 189 13.0 15.6 0.00 0.00 0.00 89 1008.3
20260506090020 58 193 10.4 13.0 0.00 0.00 0.00 91 1008.1
20260506090016 58 193 10.4 13.0 0.00 0.00 0.00 91 1008.1
20260506085535 58 213 11.3 14.8 0.00 0.00 0.00 92 1008.1
20260506085055 57 203 13.9 17.4 0.00 0.00 0.00 90 1008.2
20260506084615 58 196 13.0 17.4 0.00 0.00 0.00 91 1008.1
20260506084134 59 203 15.6 18.2 0.00 0.00 0.00 85 1007.9
20260506083654 59 206 14.8 20.9 0.00 0.00 0.00 86 1008.0
20260506083213 59 204 14.8 21.7 0.00 0.00 0.00 85 1007.9
20260506082733 59 193 13.0 17.4 0.00 0.00 0.00 88 1007.8
20260506082252 59 199 12.2 14.8 0.00 0.00 0.00 90 1007.9
20260506081816 58 210 11.3 15.6 0.00 0.00 0.00 92 1008.0
20260506081812 58 210 11.3 15.6 0.00 0.00 0.00 92 1008.0
20260506081332 58 216 13.9 20.9 0.00 0.00 0.00 92 1008.0
20260506080851 58 212 13.0 17.4 0.00 0.00 0.00 94 1007.8
20260506080411 58 207 13.0 16.5 0.00 0.00 0.00 95 1007.8